Regional Weather Roundup
Issued by NWS

Home | Current Version | Previous Version | Graphics & Text | Print | Product List | Glossary On
Versions: 1 2 3 4 5 6 7 8 9 10 11 12 13 14 15 16 17 18 19 20 21 22 23 24 25 26 27 28 29 30 31 32 33 34 35 36 37 38 39 40 41 42 43 44 45 46 47 48 49 50
218
ASUS45 KSLC 220610
RWRUT

UTAH REGIONAL WEATHER ROUNDUP
NATIONAL WEATHER SERVICE SALT LAKE CITY UT
1200 AM MDT THU JUN 22 2017

UTZ001>011-023>025-220700-

NORTHERN UTAH

CITY           SKY/WX    TMP DP  RH WIND       PRES   REMARKS
BRIGHAM CITY   PTCLDY    77  31  18 NW5       29.94F
HILL AFB       CLEAR     79  41  25 NW12      29.96F
LOGAN          PTCLDY    68  53  58 E5        29.97S
OGDEN          MOCLDY    78  41  26 N10       29.93F
SALT LAKE CITY PTCLDY    82  56  40 NW14      29.90S
TOOELE VALLEY  PTCLDY    75  55  50 N3        29.93F
WENDOVER       NOT AVBL
HEBER CITY     MOCLDY    72  43  35 E7        30.02S
WEST JORDAN    PTCLDY    80  58  47 NW13      29.95S

$$

UTZ011>015-024>027-220700-

CENTRAL/NORTHEAST UTAH

CITY           SKY/WX    TMP DP  RH WIND       PRES   REMARKS
PROVO AIRPORT  MOCLDY    81  53  37 N10       29.91R
MOAB/CANYONLAN PTCLDY    81  29  15 W5        29.85S
DELTA          CLEAR     81  36  19 N10       29.91R
PRICE          PTCLDY    77  31  18 W3        30.00R
RICHFIELD      CLEAR     68  32  26 S10       29.97
ROOSEVELT      PTCLDY    72  43  35 SW7       29.97S
VERNAL         CLOUDY    79  38  22 N13       29.96S

$$

UTZ013>016-019>022-027-220700-

SOUTHERN UTAH

CITY           SKY/WX    TMP DP  RH WIND       PRES   REMARKS
BRYCE CANYON   CLEAR     53  31  42 SW6       30.21F
CEDAR CITY     CLEAR     74  24  15 S5        30.01S
MILFORD        CLEAR     76  24  14 S5        29.93S
ST GEORGE      MOCLDY    90  26  10 SE5       29.76R
HANKSVILLE     PTCLDY    81  30  16 S5        29.88S
KANAB          CLEAR     70  36  28 N5        30.00
BLANDING       CLEAR     80  31  16 NE7       30.07S

$$

REGIONAL REPORTS     COLORADO/ARIZONA

CITY           SKY/WX    TMP DP  RH WIND       PRES   REMARKS
CRAIG, CO      CLOUDY    56  48  74 CALM      30.07S
GRAND JUNCTION CLOUDY    80  38  22 CALM      29.92S
RIFLE, CO      CLOUDY    71  41  33 S9        30.02S
MONTROSE, CO   CLEAR     74  37  26 SE12      30.04F
CORTEZ, CO     CLEAR     61  42  49 SE7       30.02F
COLORADO CITY    N/A     66  30  26 E7        29.99S
PAGE, AZ       CLEAR     91  28  10 W3        29.87R
GRAND CANYON   CLEAR     58  29  33 NE5       30.15S
KINGMAN, AZ    CLEAR     88  30  12 S12       29.84F
FLAGSTAFF, AZ  CLEAR     72  26  18 CALM      30.18S

$$

REGIONAL REPORTS    NEVADA/IDAHO/WYOMING

CITY           SKY/WX    TMP DP  RH WIND       PRES   REMARKS
LAS VEGAS, NV  CLEAR     98  20   6 SW6       29.69R HX  91
ELY, NY        CLEAR     71  41  33 VRB6      30.10R
ELKO, NV       CLEAR     72  41  32 NE7       30.08R
POCATELLO, ID  CLOUDY    68  33  27 SW18G26   30.00S
BURLEY, ID     CLEAR     67  32  27 W18G28    29.98S
FORT BRIDGER,    N/A     65  45  48 SW9       30.16S
EVANSTON, WY   CLOUDY    68  43  40 CALM      30.14F
ROCK SPRINGS,  CLEAR     67  42  40 SW9       30.08F
KEMMERER, WY     N/A     59  37  44 W8        30.15S

$$




USA.gov is the U.S. government's official web portal to all federal, state and local government web resources and services.